sat.trackr.live / text

‹ back to catalog

STARLINK-34302

NORAD 65216 · 2025-176U

PAYLOAD ACTIVE UNKNOWN

§ Identity

Operator
Country
US
Launch date
2025-08-14
Launch site
AFETR
Launch vehicle
Mass (kg)
RCS (m²)

Purposes: comms

External: N2YO · Heavens-Above · Gunter

§ Orbital elements

Epoch: 2026-09-20T21:08:33.797472Z

Period
93.85 min
Inclination
53.1609°
Eccentricity
0.0001090
Mean motion
15.34395158 rev/d
Perigee alt
462.0 km
Apogee alt
463.5 km
Semi-major
6,840.9 km
B*
6.0874e-4
RAAN
321.9353°
Arg perigee
83.0140°
Mean anomaly
277.0987°
Rev number
6,306

§ Raw data

STARLINK-343021 65216U 25176U   26263.88094673  .00020243  00000+0  60874-3 0  99932 65216  53.1609 321.9353 0001090  83.0140 277.0987 15.34395158 63067

JSON: /api/v1/satellites/65216 · /tle

For live sub-satellite position, see the globe view (requires WebGL).

§ Visibility from observer

Set your observer location to see the next 7 days of passes ≥ 10°. The values pass through the URL so the page stays shareable.

No JS? Fill the form by hand. The geolocation button needs JavaScript.